Year,Month,Day,Hour,Minute,Value (Times are PST for temperature in C)
2020,02,23,00,00,2.90
2020,02,23,00,01,2.90
2020,02,23,00,02,2.90
2020,02,23,00,03,2.90
2020,02,23,00,04,2.90
2020,02,23,00,05,2.90
2020,02,23,00,06,2.90
2020,02,23,00,07,2.90
2020,02,23,00,08,2.90
2020,02,23,00,09,2.90
2020,02,23,00,10,2.90
2020,02,23,00,11,2.90
2020,02,23,00,12,2.90
2020,02,23,00,13,2.90
2020,02,23,00,14,2.80
2020,02,23,00,15,2.80
2020,02,23,00,16,2.80
2020,02,23,00,17,2.80
2020,02,23,00,18,2.80
2020,02,23,00,19,2.80
2020,02,23,00,20,2.80
2020,02,23,00,21,2.80
2020,02,23,00,22,2.80
2020,02,23,00,23,2.80
2020,02,23,00,24,2.80
2020,02,23,00,25,2.80
2020,02,23,00,26,2.80
2020,02,23,00,27,2.80
2020,02,23,00,28,2.80
2020,02,23,00,29,2.80
2020,02,23,00,30,2.80
2020,02,23,00,31,2.80
2020,02,23,00,32,2.80
2020,02,23,00,33,2.80
2020,02,23,00,34,2.80
2020,02,23,00,35,2.80
2020,02,23,00,36,2.80
2020,02,23,00,37,2.80
2020,02,23,00,38,2.80
2020,02,23,00,39,2.80
2020,02,23,00,40,2.80
2020,02,23,00,41,2.80
2020,02,23,00,42,2.80
2020,02,23,00,43,2.80
2020,02,23,00,44,2.80
2020,02,23,00,45,2.80
2020,02,23,00,46,2.80
2020,02,23,00,47,2.80
2020,02,23,00,48,2.80
2020,02,23,00,49,2.80
2020,02,23,00,50,2.80
2020,02,23,00,51,2.80
2020,02,23,00,52,2.80
2020,02,23,00,53,2.80
2020,02,23,00,54,2.80
2020,02,23,00,55,2.80
2020,02,23,00,56,2.80
2020,02,23,00,57,2.80
2020,02,23,00,58,2.80
2020,02,23,00,59,2.80
2020,02,23,01,00,2.80
2020,02,23,01,01,2.90
2020,02,23,01,02,2.90
2020,02,23,01,03,2.90
2020,02,23,01,04,2.90
2020,02,23,01,05,2.90
2020,02,23,01,06,2.90
2020,02,23,01,07,2.90
2020,02,23,01,08,2.90
2020,02,23,01,09,2.90
2020,02,23,01,10,2.90
2020,02,23,01,11,2.90
2020,02,23,01,12,2.90
2020,02,23,01,13,2.90
2020,02,23,01,14,2.90
2020,02,23,01,15,2.90
2020,02,23,01,16,2.90
2020,02,23,01,17,2.90
2020,02,23,01,18,2.90
2020,02,23,01,19,2.90
2020,02,23,01,20,2.90
2020,02,23,01,21,2.90
2020,02,23,01,22,2.90
2020,02,23,01,23,2.90
2020,02,23,01,24,2.90
2020,02,23,01,25,2.90
2020,02,23,01,26,2.90
2020,02,23,01,27,2.90
2020,02,23,01,28,2.90
2020,02,23,01,29,3.00
2020,02,23,01,30,3.00
2020,02,23,01,31,3.00
2020,02,23,01,32,3.00
2020,02,23,01,33,3.00
2020,02,23,01,34,3.00
2020,02,23,01,35,3.00
2020,02,23,01,36,3.00
2020,02,23,01,37,3.10
2020,02,23,01,38,3.10
2020,02,23,01,39,3.10
2020,02,23,01,40,3.10
2020,02,23,01,41,3.10
2020,02,23,01,42,3.10
2020,02,23,01,43,3.10
2020,02,23,01,44,3.10
2020,02,23,01,45,3.10
2020,02,23,01,46,3.10
2020,02,23,01,47,3.10
2020,02,23,01,48,3.10
2020,02,23,01,49,3.10
2020,02,23,01,50,3.10
2020,02,23,01,51,3.10
2020,02,23,01,52,3.10
2020,02,23,01,53,3.10
2020,02,23,01,54,3.10
2020,02,23,01,55,3.10
2020,02,23,01,56,3.10
2020,02,23,01,57,3.10
2020,02,23,01,58,3.10
2020,02,23,01,59,3.10
2020,02,23,02,00,3.10
2020,02,23,02,01,3.10
2020,02,23,02,02,3.10
2020,02,23,02,03,3.10
2020,02,23,02,04,3.10
2020,02,23,02,05,3.10
2020,02,23,02,06,3.10
2020,02,23,02,07,3.10
2020,02,23,02,08,3.20
2020,02,23,02,09,3.20
2020,02,23,02,10,3.20
2020,02,23,02,11,3.20
2020,02,23,02,12,3.20
2020,02,23,02,13,3.20
2020,02,23,02,14,3.20
2020,02,23,02,15,3.20
2020,02,23,02,16,3.20
2020,02,23,02,17,3.30
2020,02,23,02,18,3.30
2020,02,23,02,19,3.30
2020,02,23,02,20,3.30
2020,02,23,02,21,3.30
2020,02,23,02,22,3.30
2020,02,23,02,23,3.30
2020,02,23,02,24,3.30
2020,02,23,02,25,3.30
2020,02,23,02,26,3.30
2020,02,23,02,27,3.30
2020,02,23,02,28,3.30
2020,02,23,02,29,3.30
2020,02,23,02,30,3.40
2020,02,23,02,31,3.40
2020,02,23,02,32,3.40
2020,02,23,02,33,3.40
2020,02,23,02,34,3.40
2020,02,23,02,35,3.40
2020,02,23,02,36,3.40
2020,02,23,02,37,3.40
2020,02,23,02,38,3.40
2020,02,23,02,39,3.40
2020,02,23,02,40,3.40
2020,02,23,02,41,3.40
2020,02,23,02,42,3.40
2020,02,23,02,43,3.50
2020,02,23,02,44,3.50
2020,02,23,02,45,3.50
2020,02,23,02,46,3.50
2020,02,23,02,47,3.50
2020,02,23,02,48,3.50
2020,02,23,02,49,3.50
2020,02,23,02,50,3.50
2020,02,23,02,51,3.50
2020,02,23,02,52,3.50
2020,02,23,02,53,3.60
2020,02,23,02,54,3.60
2020,02,23,02,55,3.60
2020,02,23,02,56,3.60
2020,02,23,02,57,3.60
2020,02,23,02,58,3.60
2020,02,23,02,59,3.60
2020,02,23,03,00,3.60
2020,02,23,03,01,3.70
2020,02,23,03,02,3.70
2020,02,23,03,03,3.70
2020,02,23,03,04,3.70
2020,02,23,03,05,3.70
2020,02,23,03,06,3.70
2020,02,23,03,07,3.70
2020,02,23,03,08,3.80
2020,02,23,03,09,3.80
2020,02,23,03,10,3.80
2020,02,23,03,11,3.80
2020,02,23,03,12,3.80
2020,02,23,03,13,3.90
2020,02,23,03,14,3.90
2020,02,23,03,15,3.90
2020,02,23,03,16,3.90
2020,02,23,03,17,3.90
2020,02,23,03,18,3.90
2020,02,23,03,19,3.90
2020,02,23,03,20,4.00
2020,02,23,03,21,4.00
2020,02,23,03,22,4.00
2020,02,23,03,23,4.10
2020,02,23,03,24,4.10
2020,02,23,03,25,4.10
2020,02,23,03,26,4.10
2020,02,23,03,27,4.10
2020,02,23,03,28,4.10
2020,02,23,03,29,4.10
2020,02,23,03,30,4.10
2020,02,23,03,31,4.10
2020,02,23,03,32,4.10
2020,02,23,03,33,4.10
2020,02,23,03,34,4.10
2020,02,23,03,35,4.20
2020,02,23,03,36,4.20
2020,02,23,03,37,4.20
2020,02,23,03,38,4.20
2020,02,23,03,39,4.20
2020,02,23,03,40,4.20
2020,02,23,03,41,4.20
2020,02,23,03,42,4.20
2020,02,23,03,43,4.20
2020,02,23,03,44,4.20
2020,02,23,03,45,4.20
2020,02,23,03,46,4.20
2020,02,23,03,47,4.30
2020,02,23,03,48,4.30
2020,02,23,03,49,4.30
2020,02,23,03,50,4.30
2020,02,23,03,51,4.30
2020,02,23,03,52,4.30
2020,02,23,03,53,4.30
2020,02,23,03,54,4.30
2020,02,23,03,55,4.30
2020,02,23,03,56,4.30
2020,02,23,03,57,4.30
2020,02,23,03,58,4.30
2020,02,23,03,59,4.30
2020,02,23,04,00,4.30
2020,02,23,04,01,4.40
2020,02,23,04,02,4.40
2020,02,23,04,03,4.40
2020,02,23,04,04,4.40
2020,02,23,04,05,4.40
2020,02,23,04,06,4.40
2020,02,23,04,07,4.40
2020,02,23,04,08,4.40
2020,02,23,04,09,4.40
2020,02,23,04,10,4.40
2020,02,23,04,11,4.40
2020,02,23,04,12,4.40
2020,02,23,04,13,4.40
2020,02,23,04,14,4.40
2020,02,23,04,15,4.40
2020,02,23,04,16,4.40
2020,02,23,04,17,4.40
2020,02,23,04,18,4.40
2020,02,23,04,19,4.40
2020,02,23,04,20,4.40
2020,02,23,04,21,4.40
2020,02,23,04,22,4.40
2020,02,23,04,23,4.40
2020,02,23,04,24,4.40
2020,02,23,04,25,4.40
2020,02,23,04,26,4.40
2020,02,23,04,27,4.40
2020,02,23,04,28,4.40
2020,02,23,04,29,4.40
2020,02,23,04,30,4.40
2020,02,23,04,31,4.30
2020,02,23,04,32,4.40
2020,02,23,04,33,4.40
2020,02,23,04,34,4.40
2020,02,23,04,35,4.30
2020,02,23,04,36,4.40
2020,02,23,04,37,4.40
2020,02,23,04,38,4.40
2020,02,23,04,39,4.40
2020,02,23,04,40,4.30
2020,02,23,04,41,4.30
2020,02,23,04,42,4.30
2020,02,23,04,43,4.30
2020,02,23,04,44,4.30
2020,02,23,04,45,4.30
2020,02,23,04,46,4.30
2020,02,23,04,47,4.30
2020,02,23,04,48,4.30
2020,02,23,04,49,4.30
2020,02,23,04,50,4.30
2020,02,23,04,51,4.30
2020,02,23,04,52,4.30
2020,02,23,04,53,4.30
2020,02,23,04,54,4.30
2020,02,23,04,55,4.30
2020,02,23,04,56,4.30
2020,02,23,04,57,4.30
2020,02,23,04,58,4.30
2020,02,23,04,59,4.30
2020,02,23,05,00,4.30
2020,02,23,05,01,4.30
2020,02,23,05,02,4.30
2020,02,23,05,03,4.30
2020,02,23,05,04,4.30
2020,02,23,05,05,4.30
2020,02,23,05,06,4.30
2020,02,23,05,07,4.30
2020,02,23,05,08,4.30
2020,02,23,05,09,4.30
2020,02,23,05,10,4.30
2020,02,23,05,11,4.30
2020,02,23,05,12,4.30
2020,02,23,05,13,4.30
2020,02,23,05,14,4.30
2020,02,23,05,15,4.30
2020,02,23,05,16,4.30
2020,02,23,05,17,4.30
2020,02,23,05,18,4.30
2020,02,23,05,19,4.30
2020,02,23,05,20,4.30
2020,02,23,05,21,4.30
2020,02,23,05,22,4.30
2020,02,23,05,23,4.30
2020,02,23,05,24,4.30
2020,02,23,05,25,4.30
2020,02,23,05,26,4.30
2020,02,23,05,27,4.30
2020,02,23,05,28,4.30
2020,02,23,05,29,4.20
2020,02,23,05,30,4.20
2020,02,23,05,31,4.10
2020,02,23,05,32,4.10
2020,02,23,05,33,4.10
2020,02,23,05,34,4.00
2020,02,23,05,35,3.90
2020,02,23,05,36,3.80
2020,02,23,05,37,3.80
2020,02,23,05,38,3.70
2020,02,23,05,39,3.60
2020,02,23,05,40,3.60
2020,02,23,05,41,3.50
2020,02,23,05,42,3.50
2020,02,23,05,43,3.40
2020,02,23,05,44,3.30
2020,02,23,05,45,3.30
2020,02,23,05,46,3.30
2020,02,23,05,47,3.20
2020,02,23,05,48,3.20
2020,02,23,05,49,3.20
2020,02,23,05,50,3.20
2020,02,23,05,51,3.10
2020,02,23,05,52,3.10
2020,02,23,05,53,3.10
2020,02,23,05,54,3.10
2020,02,23,05,55,3.10
2020,02,23,05,56,3.00
2020,02,23,05,57,3.00
2020,02,23,05,58,3.00
2020,02,23,05,59,2.90
2020,02,23,06,00,2.90
2020,02,23,06,01,2.90
2020,02,23,06,02,2.90
2020,02,23,06,03,2.90
2020,02,23,06,04,2.90
2020,02,23,06,05,2.80
2020,02,23,06,06,2.80
2020,02,23,06,07,2.80
2020,02,23,06,08,2.80
2020,02,23,06,09,2.80
2020,02,23,06,10,2.80
2020,02,23,06,11,2.70
2020,02,23,06,12,2.70
2020,02,23,06,13,2.70
2020,02,23,06,14,2.70
2020,02,23,06,15,2.60
2020,02,23,06,16,2.60
2020,02,23,06,17,2.60
2020,02,23,06,18,2.60
2020,02,23,06,19,2.60
2020,02,23,06,20,2.60
2020,02,23,06,21,2.60
2020,02,23,06,22,2.60
2020,02,23,06,23,2.60
2020,02,23,06,24,2.60
2020,02,23,06,25,2.50
2020,02,23,06,26,2.50
2020,02,23,06,27,2.50
2020,02,23,06,28,2.50
2020,02,23,06,29,2.50
2020,02,23,06,30,2.40
2020,02,23,06,31,2.40
2020,02,23,06,32,2.40
2020,02,23,06,33,2.40
2020,02,23,06,34,2.40
2020,02,23,06,35,2.40
2020,02,23,06,36,2.40
2020,02,23,06,37,2.40
2020,02,23,06,38,2.40
2020,02,23,06,39,2.30
2020,02,23,06,40,2.30
2020,02,23,06,41,2.30
2020,02,23,06,42,2.30
2020,02,23,06,43,2.30
2020,02,23,06,44,2.30
2020,02,23,06,45,2.30
2020,02,23,06,46,2.20
2020,02,23,06,47,2.20
2020,02,23,06,48,2.20
2020,02,23,06,49,2.20
2020,02,23,06,50,2.20
2020,02,23,06,51,2.20
2020,02,23,06,52,2.20
2020,02,23,06,53,2.20
2020,02,23,06,54,2.20
2020,02,23,06,55,2.10
2020,02,23,06,56,2.10
2020,02,23,06,57,2.10
2020,02,23,06,58,2.10
2020,02,23,06,59,2.10
2020,02,23,07,00,2.10
2020,02,23,07,01,2.10
2020,02,23,07,02,2.10
2020,02,23,07,03,2.10
2020,02,23,07,04,2.10
2020,02,23,07,05,2.10
2020,02,23,07,06,2.10
2020,02,23,07,07,2.10
2020,02,23,07,08,2.10
2020,02,23,07,09,2.10
2020,02,23,07,10,2.10
2020,02,23,07,11,2.10
2020,02,23,07,12,2.20
2020,02,23,07,13,2.20
2020,02,23,07,14,2.20
2020,02,23,07,15,2.20
2020,02,23,07,16,2.20
2020,02,23,07,17,2.20
2020,02,23,07,18,2.30
2020,02,23,07,19,2.30
2020,02,23,07,20,2.30
2020,02,23,07,21,2.30
2020,02,23,07,22,2.30
2020,02,23,07,23,2.30
2020,02,23,07,24,2.30
2020,02,23,07,25,2.30
2020,02,23,07,26,2.30
2020,02,23,07,27,2.30
2020,02,23,07,28,2.30
2020,02,23,07,29,2.30
2020,02,23,07,30,2.30
2020,02,23,07,31,2.30
2020,02,23,07,32,2.40
2020,02,23,07,33,2.40
2020,02,23,07,34,2.40
2020,02,23,07,35,2.40
2020,02,23,07,36,2.40
2020,02,23,07,37,2.40
2020,02,23,07,38,2.40
2020,02,23,07,39,2.40
2020,02,23,07,40,2.40
2020,02,23,07,41,2.40
2020,02,23,07,42,2.40
2020,02,23,07,43,2.40
2020,02,23,07,44,2.40
2020,02,23,07,45,2.50
2020,02,23,07,46,2.50
2020,02,23,07,47,2.50
2020,02,23,07,48,2.50
2020,02,23,07,49,2.50
2020,02,23,07,50,2.50
2020,02,23,07,51,2.60
2020,02,23,07,52,2.60
2020,02,23,07,53,2.60
2020,02,23,07,54,2.60
2020,02,23,07,55,2.60
2020,02,23,07,56,2.60
2020,02,23,07,57,2.60
2020,02,23,07,58,2.60
2020,02,23,07,59,2.60
2020,02,23,08,00,2.60
2020,02,23,08,01,2.60
2020,02,23,08,02,2.60
2020,02,23,08,03,2.60
2020,02,23,08,04,2.60
2020,02,23,08,05,2.70
2020,02,23,08,06,2.70
2020,02,23,08,07,2.70
2020,02,23,08,08,2.80
2020,02,23,08,09,2.80
2020,02,23,08,10,2.80
2020,02,23,08,11,2.80
2020,02,23,08,12,2.90
2020,02,23,08,13,2.90
2020,02,23,08,14,2.90
2020,02,23,08,15,2.90
2020,02,23,08,16,2.90
2020,02,23,08,17,3.00
2020,02,23,08,18,3.00
2020,02,23,08,19,3.00
2020,02,23,08,20,3.10
2020,02,23,08,21,3.10
2020,02,23,08,22,3.10
2020,02,23,08,23,3.20
2020,02,23,08,24,3.20
2020,02,23,08,25,3.20
2020,02,23,08,26,3.20
2020,02,23,08,27,3.20
2020,02,23,08,28,3.30
2020,02,23,08,29,3.40
2020,02,23,08,30,3.40
2020,02,23,08,31,3.50
2020,02,23,08,32,3.60
2020,02,23,08,33,3.70
2020,02,23,08,34,3.70
2020,02,23,08,35,3.80
2020,02,23,08,36,3.80
2020,02,23,08,37,3.90
2020,02,23,08,38,3.90
2020,02,23,08,39,3.90
2020,02,23,08,40,3.90
2020,02,23,08,41,4.00
2020,02,23,08,42,4.00
2020,02,23,08,43,4.10
2020,02,23,08,44,4.10
2020,02,23,08,45,4.10
2020,02,23,08,46,4.20
2020,02,23,08,47,4.20
2020,02,23,08,48,4.30
2020,02,23,08,49,4.30
2020,02,23,08,50,4.30
2020,02,23,08,51,4.40
2020,02,23,08,52,4.40
2020,02,23,08,53,4.50
2020,02,23,08,54,4.50
2020,02,23,08,55,4.60
2020,02,23,08,56,4.60
2020,02,23,08,57,4.60
2020,02,23,08,58,4.60
2020,02,23,08,59,4.60
2020,02,23,09,00,4.60
2020,02,23,09,01,4.70
2020,02,23,09,02,4.70
2020,02,23,09,03,4.70
2020,02,23,09,04,4.80
2020,02,23,09,05,4.80
2020,02,23,09,06,4.80
2020,02,23,09,07,4.80
2020,02,23,09,08,4.80
2020,02,23,09,09,4.80
2020,02,23,09,10,4.80
2020,02,23,09,11,4.80
2020,02,23,09,12,4.90
2020,02,23,09,13,4.90
2020,02,23,09,14,4.90
2020,02,23,09,15,5.00
2020,02,23,09,16,5.00
2020,02,23,09,17,5.10
2020,02,23,09,18,5.10
2020,02,23,09,19,5.10
2020,02,23,09,20,5.10
2020,02,23,09,21,5.10
2020,02,23,09,22,5.10
2020,02,23,09,23,5.10
2020,02,23,09,24,5.10
2020,02,23,09,25,5.10
2020,02,23,09,26,5.10
2020,02,23,09,27,5.10
2020,02,23,09,28,5.10
2020,02,23,09,29,5.10
2020,02,23,09,30,5.10
2020,02,23,09,31,5.10
2020,02,23,09,32,5.10
2020,02,23,09,33,5.10
2020,02,23,09,34,5.10
2020,02,23,09,35,5.10
2020,02,23,09,36,5.10
2020,02,23,09,37,5.10
2020,02,23,09,38,5.20
2020,02,23,09,39,5.20
2020,02,23,09,40,5.20
2020,02,23,09,41,5.30
2020,02,23,09,42,5.30
2020,02,23,09,43,5.30
2020,02,23,09,44,5.30
2020,02,23,09,45,5.30
2020,02,23,09,46,5.30
2020,02,23,09,47,5.30
2020,02,23,09,48,5.30
2020,02,23,09,49,5.30
2020,02,23,09,50,5.30
2020,02,23,09,51,5.30
2020,02,23,09,52,5.20
2020,02,23,09,53,5.10
2020,02,23,09,54,5.00
2020,02,23,09,55,5.00
2020,02,23,09,56,4.90
2020,02,23,09,57,4.90
2020,02,23,09,58,4.80
2020,02,23,09,59,4.70
2020,02,23,10,00,4.70
2020,02,23,10,01,4.60
2020,02,23,10,02,4.60
2020,02,23,10,03,4.50
2020,02,23,10,04,4.50
2020,02,23,10,05,4.40
2020,02,23,10,06,4.40
2020,02,23,10,07,4.40
2020,02,23,10,08,4.30
2020,02,23,10,09,4.30
2020,02,23,10,10,4.30
2020,02,23,10,11,4.30
2020,02,23,10,12,4.20
2020,02,23,10,13,4.20
2020,02,23,10,14,4.20
2020,02,23,10,15,4.20
2020,02,23,10,16,4.10
2020,02,23,10,17,4.10
2020,02,23,10,18,4.10
2020,02,23,10,19,4.10
2020,02,23,10,20,4.10
2020,02,23,10,21,4.00
2020,02,23,10,22,4.00
2020,02,23,10,23,4.00
2020,02,23,10,24,4.00
2020,02,23,10,25,4.00
2020,02,23,10,26,4.00
2020,02,23,10,27,3.90
2020,02,23,10,28,4.00
2020,02,23,10,29,4.00
2020,02,23,10,30,4.00
2020,02,23,10,31,4.00
2020,02,23,10,32,4.00
2020,02,23,10,33,4.10
2020,02,23,10,34,4.10
2020,02,23,10,35,4.10
2020,02,23,10,36,4.20
2020,02,23,10,37,4.20
2020,02,23,10,38,4.20
2020,02,23,10,39,4.30
2020,02,23,10,40,4.30
2020,02,23,10,41,4.30
2020,02,23,10,42,4.30
2020,02,23,10,43,4.30
2020,02,23,10,44,4.30
2020,02,23,10,45,4.30
2020,02,23,10,46,4.30
2020,02,23,10,47,4.30
2020,02,23,10,48,4.30
2020,02,23,10,49,4.30
2020,02,23,10,50,4.40
2020,02,23,10,51,4.40
2020,02,23,10,52,4.40
2020,02,23,10,53,4.50
2020,02,23,10,54,4.50
2020,02,23,10,55,4.60
2020,02,23,10,56,4.60
2020,02,23,10,57,4.70
2020,02,23,10,58,4.70
2020,02,23,10,59,4.70
2020,02,23,11,00,4.80
2020,02,23,11,01,4.80
2020,02,23,11,02,4.80
2020,02,23,11,03,4.80
2020,02,23,11,04,4.90
2020,02,23,11,05,4.90
2020,02,23,11,06,4.90
2020,02,23,11,07,5.00
2020,02,23,11,08,5.10
2020,02,23,11,09,5.10
2020,02,23,11,10,5.10
2020,02,23,11,11,5.10
2020,02,23,11,12,5.10
2020,02,23,11,13,5.10
2020,02,23,11,14,5.00
2020,02,23,11,15,5.00
2020,02,23,11,16,5.00
2020,02,23,11,17,4.90
2020,02,23,11,18,4.90
2020,02,23,11,19,4.90
2020,02,23,11,20,4.80
2020,02,23,11,21,4.80
2020,02,23,11,22,4.80
2020,02,23,11,23,4.70
2020,02,23,11,24,4.70
2020,02,23,11,25,4.60
2020,02,23,11,26,4.60
2020,02,23,11,27,4.50
2020,02,23,11,28,4.40
2020,02,23,11,29,4.40
2020,02,23,11,30,4.30
2020,02,23,11,31,4.30
2020,02,23,11,32,4.20
2020,02,23,11,33,4.20
2020,02,23,11,34,4.20
2020,02,23,11,35,4.20
2020,02,23,11,36,4.20
2020,02,23,11,37,4.20
2020,02,23,11,38,4.20
2020,02,23,11,39,4.10
2020,02,23,11,40,4.10
2020,02,23,11,41,4.10
2020,02,23,11,42,4.10
2020,02,23,11,43,4.10
2020,02,23,11,44,4.10
2020,02,23,11,45,4.00
2020,02,23,11,46,4.00
2020,02,23,11,47,4.00
2020,02,23,11,48,3.90
2020,02,23,11,49,3.90
2020,02,23,11,50,3.90
2020,02,23,11,51,3.90
2020,02,23,11,52,3.90
2020,02,23,11,53,3.90
2020,02,23,11,54,3.90
2020,02,23,11,55,3.90
2020,02,23,11,56,3.90
2020,02,23,11,57,3.90
2020,02,23,11,58,3.90
2020,02,23,11,59,3.90
2020,02,23,12,00,3.90
2020,02,23,12,01,3.90
2020,02,23,12,02,3.90
2020,02,23,12,03,3.90
2020,02,23,12,04,3.90
2020,02,23,12,05,3.90
2020,02,23,12,06,4.00
2020,02,23,12,07,3.90
2020,02,23,12,08,4.00
2020,02,23,12,09,4.00
2020,02,23,12,10,4.00
2020,02,23,12,11,4.00
2020,02,23,12,12,4.00
2020,02,23,12,13,4.00
2020,02,23,12,14,4.00
2020,02,23,12,15,3.90
2020,02,23,12,16,3.90
2020,02,23,12,17,3.90
2020,02,23,12,18,3.90
2020,02,23,12,19,3.90
2020,02,23,12,20,3.90
2020,02,23,12,21,3.90
2020,02,23,12,22,3.90
2020,02,23,12,23,3.90
2020,02,23,12,24,3.90
2020,02,23,12,25,3.80
2020,02,23,12,26,3.80
2020,02,23,12,27,3.80
2020,02,23,12,28,3.80
2020,02,23,12,29,3.80
2020,02,23,12,30,3.80
2020,02,23,12,31,3.80
2020,02,23,12,32,3.70
2020,02,23,12,33,3.70
2020,02,23,12,34,3.70
2020,02,23,12,35,3.60
2020,02,23,12,36,3.60
2020,02,23,12,37,3.60
2020,02,23,12,38,3.60
2020,02,23,12,39,3.60
2020,02,23,12,40,3.60
2020,02,23,12,41,3.50
2020,02,23,12,42,3.50
2020,02,23,12,43,3.50
2020,02,23,12,44,3.60
2020,02,23,12,45,3.60
2020,02,23,12,46,3.60
2020,02,23,12,47,3.60
2020,02,23,12,48,3.60
2020,02,23,12,49,3.70
2020,02,23,12,50,3.70
2020,02,23,12,51,3.70
2020,02,23,12,52,3.70
2020,02,23,12,53,3.70
2020,02,23,12,54,3.70
2020,02,23,12,55,3.70
2020,02,23,12,56,3.70
2020,02,23,12,57,3.70
2020,02,23,12,58,3.80
2020,02,23,12,59,3.80
2020,02,23,13,00,3.80
2020,02,23,13,01,3.80
2020,02,23,13,02,3.80
2020,02,23,13,03,3.80
2020,02,23,13,04,3.80
2020,02,23,13,05,3.90
2020,02,23,13,06,3.90
2020,02,23,13,07,3.90
2020,02,23,13,08,4.00
2020,02,23,13,09,4.00
2020,02,23,13,10,4.10
2020,02,23,13,11,4.10
2020,02,23,13,12,4.20
2020,02,23,13,13,4.20
2020,02,23,13,14,4.20
2020,02,23,13,15,4.20
2020,02,23,13,16,4.30
2020,02,23,13,17,4.30
2020,02,23,13,18,4.30
2020,02,23,13,19,4.30
2020,02,23,13,20,4.40
2020,02,23,13,21,4.40
2020,02,23,13,22,4.40
2020,02,23,13,23,4.40
2020,02,23,13,24,4.40
2020,02,23,13,25,4.40
2020,02,23,13,26,4.50
2020,02,23,13,27,4.50
2020,02,23,13,28,4.60
2020,02,23,13,29,4.60
2020,02,23,13,30,4.70
2020,02,23,13,31,4.70
2020,02,23,13,32,4.70
2020,02,23,13,33,4.80
2020,02,23,13,34,4.80
2020,02,23,13,35,4.80
2020,02,23,13,36,4.80
2020,02,23,13,37,4.80
2020,02,23,13,38,4.80
2020,02,23,13,39,4.80
2020,02,23,13,40,4.90
2020,02,23,13,41,4.90
2020,02,23,13,42,4.90
2020,02,23,13,43,4.90
2020,02,23,13,44,4.90
2020,02,23,13,45,4.80
2020,02,23,13,46,4.80
2020,02,23,13,47,4.80
2020,02,23,13,48,4.80
2020,02,23,13,49,4.80
2020,02,23,13,50,4.80
2020,02,23,13,51,4.80
2020,02,23,13,52,4.80
2020,02,23,13,53,4.80
2020,02,23,13,54,4.70
2020,02,23,13,55,4.70
2020,02,23,13,56,4.70
2020,02,23,13,57,4.80
2020,02,23,13,58,4.80
2020,02,23,13,59,4.80
2020,02,23,14,00,4.80
2020,02,23,14,01,4.80
2020,02,23,14,02,4.80
2020,02,23,14,03,4.80
2020,02,23,14,04,4.80
2020,02,23,14,05,4.80
2020,02,23,14,06,4.70
2020,02,23,14,07,4.70
2020,02,23,14,08,4.70
2020,02,23,14,09,4.70
2020,02,23,14,10,4.70
2020,02,23,14,11,4.70
2020,02,23,14,12,4.70
2020,02,23,14,13,4.70
2020,02,23,14,14,4.70
2020,02,23,14,15,4.70
2020,02,23,14,16,4.70
2020,02,23,14,17,4.80
2020,02,23,14,18,4.80
2020,02,23,14,19,4.80
2020,02,23,14,20,4.90
2020,02,23,14,21,4.90
2020,02,23,14,22,4.90
2020,02,23,14,23,4.90
2020,02,23,14,24,5.00
2020,02,23,14,25,5.00
2020,02,23,14,26,5.00
2020,02,23,14,27,5.00
2020,02,23,14,28,5.00
2020,02,23,14,29,5.00
2020,02,23,14,30,5.10
2020,02,23,14,31,5.00
2020,02,23,14,32,5.00
2020,02,23,14,33,4.90
2020,02,23,14,34,4.90
2020,02,23,14,35,4.90
2020,02,23,14,36,4.90
2020,02,23,14,37,4.90
2020,02,23,14,38,4.90
2020,02,23,14,39,4.90
2020,02,23,14,40,4.90
2020,02,23,14,41,4.90
2020,02,23,14,42,5.00
2020,02,23,14,43,5.00
2020,02,23,14,44,5.00
2020,02,23,14,45,5.00
2020,02,23,14,46,5.00
2020,02,23,14,47,5.00
2020,02,23,14,48,5.00
2020,02,23,14,49,5.00
2020,02,23,14,50,5.00
2020,02,23,14,51,5.00
2020,02,23,14,52,5.00
2020,02,23,14,53,5.00
2020,02,23,14,54,5.00
2020,02,23,14,55,5.00
2020,02,23,14,56,4.90
2020,02,23,14,57,4.90
2020,02,23,14,58,4.90
2020,02,23,14,59,4.90
2020,02,23,15,00,5.00
2020,02,23,15,01,4.90
2020,02,23,15,02,4.90
2020,02,23,15,03,4.90
2020,02,23,15,04,4.90
2020,02,23,15,05,4.90
2020,02,23,15,06,4.90
2020,02,23,15,07,4.90
2020,02,23,15,08,4.90
2020,02,23,15,09,4.90
2020,02,23,15,10,4.90
2020,02,23,15,11,4.90
2020,02,23,15,12,4.90
2020,02,23,15,13,4.90
2020,02,23,15,14,4.90
2020,02,23,15,15,4.90
2020,02,23,15,16,4.90
2020,02,23,15,17,4.90
2020,02,23,15,18,4.90
2020,02,23,15,19,4.80
2020,02,23,15,20,4.80
2020,02,23,15,21,4.80
2020,02,23,15,22,4.80
2020,02,23,15,23,4.80
2020,02,23,15,24,4.80
2020,02,23,15,25,4.80
2020,02,23,15,26,4.80
2020,02,23,15,27,4.80
2020,02,23,15,28,4.80
2020,02,23,15,29,4.80
2020,02,23,15,30,4.80
2020,02,23,15,31,4.80
2020,02,23,15,32,4.80
2020,02,23,15,33,4.80
2020,02,23,15,34,4.80
2020,02,23,15,35,4.90
2020,02,23,15,36,4.90
2020,02,23,15,37,4.90
2020,02,23,15,38,4.90
2020,02,23,15,39,4.90
2020,02,23,15,40,4.90
2020,02,23,15,41,4.90
2020,02,23,15,42,4.90
2020,02,23,15,43,5.00
2020,02,23,15,44,5.00
2020,02,23,15,45,5.00
2020,02,23,15,46,5.00
2020,02,23,15,47,5.00
2020,02,23,15,48,5.10
2020,02,23,15,49,5.00
2020,02,23,15,50,5.00
2020,02,23,15,51,5.00
2020,02,23,15,52,5.00
2020,02,23,15,53,5.00
2020,02,23,15,54,5.00
2020,02,23,15,55,5.00
2020,02,23,15,56,5.00
2020,02,23,15,57,5.00
2020,02,23,15,58,5.00
2020,02,23,15,59,5.00
2020,02,23,16,00,5.00
2020,02,23,16,01,5.00
2020,02,23,16,02,5.00
2020,02,23,16,03,5.00
2020,02,23,16,04,5.00
2020,02,23,16,05,5.00
2020,02,23,16,06,5.00
2020,02,23,16,07,5.00
2020,02,23,16,08,5.00
2020,02,23,16,09,5.00
2020,02,23,16,10,5.00
2020,02,23,16,11,5.00
2020,02,23,16,12,5.00
2020,02,23,16,13,5.00
2020,02,23,16,14,5.00
2020,02,23,16,15,5.00
2020,02,23,16,16,5.00
2020,02,23,16,17,4.90
2020,02,23,16,18,4.90
2020,02,23,16,19,4.90
2020,02,23,16,20,4.90
2020,02,23,16,21,4.90
2020,02,23,16,22,4.90
2020,02,23,16,23,4.90
2020,02,23,16,24,4.90
2020,02,23,16,25,4.90
2020,02,23,16,26,4.90
2020,02,23,16,27,4.90
2020,02,23,16,28,4.90
2020,02,23,16,29,4.90
2020,02,23,16,30,4.90
2020,02,23,16,31,5.00
2020,02,23,16,32,5.00
2020,02,23,16,33,5.10
2020,02,23,16,34,5.10
2020,02,23,16,35,5.10
2020,02,23,16,36,5.10
2020,02,23,16,37,5.10
2020,02,23,16,38,5.10
2020,02,23,16,39,5.10
2020,02,23,16,40,5.10
2020,02,23,16,41,5.10
2020,02,23,16,42,5.10
2020,02,23,16,43,5.10
2020,02,23,16,44,5.10
2020,02,23,16,45,5.10
2020,02,23,16,46,5.10
2020,02,23,16,47,5.10
2020,02,23,16,48,5.10
2020,02,23,16,49,5.20
2020,02,23,16,50,5.20
2020,02,23,16,51,5.20
2020,02,23,16,52,5.20
2020,02,23,16,53,5.20
2020,02,23,16,54,5.10
2020,02,23,16,55,5.10
2020,02,23,16,56,5.10
2020,02,23,16,57,5.10
2020,02,23,16,58,5.10
2020,02,23,16,59,5.10
2020,02,23,17,00,5.10
2020,02,23,17,01,5.10
2020,02,23,17,02,5.10
2020,02,23,17,03,5.10
2020,02,23,17,04,5.10
2020,02,23,17,05,5.10
2020,02,23,17,06,5.10
2020,02,23,17,07,5.10
2020,02,23,17,08,5.10
2020,02,23,17,09,5.10
2020,02,23,17,10,5.10
2020,02,23,17,11,5.00
2020,02,23,17,12,5.00
2020,02,23,17,13,5.00
2020,02,23,17,14,5.00
2020,02,23,17,15,5.10
2020,02,23,17,16,5.10
2020,02,23,17,17,5.10
2020,02,23,17,18,5.10
2020,02,23,17,19,5.10
2020,02,23,17,20,5.10
2020,02,23,17,21,5.20
2020,02,23,17,22,5.20
2020,02,23,17,23,5.20
2020,02,23,17,24,5.20
2020,02,23,17,25,5.20
2020,02,23,17,26,5.20
2020,02,23,17,27,5.20
2020,02,23,17,28,5.20
2020,02,23,17,29,5.20
2020,02,23,17,30,5.10
2020,02,23,17,31,5.10
2020,02,23,17,32,5.20
2020,02,23,17,33,5.10
2020,02,23,17,34,5.10
2020,02,23,17,35,5.20
2020,02,23,17,36,5.20
2020,02,23,17,37,5.10
2020,02,23,17,38,5.10
2020,02,23,17,39,5.20
2020,02,23,17,40,5.20
2020,02,23,17,41,5.20
2020,02,23,17,42,5.20
2020,02,23,17,43,5.20
2020,02,23,17,44,5.20
2020,02,23,17,45,5.20
2020,02,23,17,46,5.20
2020,02,23,17,47,5.20
2020,02,23,17,48,5.20
2020,02,23,17,49,5.20
2020,02,23,17,50,5.20
2020,02,23,17,51,5.30
2020,02,23,17,52,5.30
2020,02,23,17,53,5.30
2020,02,23,17,54,5.20
2020,02,23,17,55,5.20
2020,02,23,17,56,5.20
2020,02,23,17,57,5.20
2020,02,23,17,58,5.20
2020,02,23,17,59,5.20
2020,02,23,18,00,5.20
2020,02,23,18,01,5.20
2020,02,23,18,02,5.20
2020,02,23,18,03,5.20
2020,02,23,18,04,5.20
2020,02,23,18,05,5.20
2020,02,23,18,06,5.20